Selinsgrove, PA

8:22 PM EST on December 16, 2017 (GMT -0500)
Penn Valley

Weather History for KSEG - September, 2013

Change the Weather History Date:

Wednesday, September 18, 2013

  Actual Average (KIPT) Record (KIPT)
Temperature  
Mean Temperature 54 °F -  
Max Temperature 71 °F 71 °F 88 °F (1964)
Min Temperature 39 °F 51 °F 34 °F (1925)
Degree Days  
Heating Degree Days 10    
Growing Degree Days 4 (Base 50)    
Moisture  
Dew Point 43 °F    
Average Humidity 82    
Maximum Humidity 100    
Minimum Humidity 39    
Precipitation  
Precipitation 0.00 in - - ()
Sea Level Pressure  
Sea Level Pressure 30.30 in    
Wind  
Wind Speed 1 mph (South)    
Max Wind Speed 8 mph    
Max Gust Speed -    
Visibility 7 miles    
Events Fog    
Averages and records for this station are not official NWS values.
T = Trace of Precipitation, MM = Missing Value Source: NWS Daily Summary

Daily Weather History Graph

Daily Weather History Graph

Search for Another Location

Airport or City:

Trip Planner

Search our weather history database for the weather conditions in past years. The results will help you decide how hot, cold, wet, or windy it might be!

Date:

Astronomy

Sep. 18, 2013 Rise Set
Actual Time 6:51 AM EDT 7:11 PM EDT
Civil Twilight 6:23 AM EDT 7:38 PM EDT
Nautical Twilight 5:51 AM EDT 8:10 PM EDT
Astronomical Twilight 5:18 AM EDT 8:43 PM EDT
Moon 6:32 PM EDT (9/18) 5:51 AM EDT (9/18)
Length of Visible Light 13h 14m
Length of Day
12h 19m
Waxing Gibbous, 99% of the Moon is Illuminated
Sep 18
Waxing Gibbous
Sep 19
Full
Sep 26
Last Quarter
Oct 4
New
Oct 11
First Quarter

Hourly Weather History & Observations

Time (EDT) Temp. Windchill Dew Point Humidity Pressure Visibility Wind Dir Wind Speed Gust Speed Precip Events Conditions
12:53 AM 41.0 °F - 39.0 °F 93% 30.35 in 10.0 mi Calm Calm - N/A   Clear
1:53 AM 39.9 °F - 37.9 °F 93% 30.35 in 10.0 mi Calm Calm - N/A   Clear
2:53 AM 39.0 °F - 37.0 °F 93% 30.35 in 10.0 mi Calm Calm - N/A   Clear
3:28 AM 39.2 °F - 37.4 °F 93% 30.34 in 10.0 mi Calm Calm - N/A   Partly Cloudy
3:46 AM 39.2 °F - 37.4 °F 93% 30.34 in 10.0 mi Calm Calm - N/A   Mostly Cloudy
3:53 AM 39.9 °F - 37.9 °F 93% 30.34 in 10.0 mi Calm Calm - N/A   Mostly Cloudy
4:19 AM 42.8 °F - 41.0 °F 93% 30.33 in 1.8 mi Calm Calm - N/A   Overcast
4:23 AM 42.8 °F - 41.0 °F 93% 30.33 in 0.8 mi Calm Calm - N/A   Overcast
4:53 AM 43.0 °F - 43.0 °F 100% 30.34 in 0.2 mi Calm Calm - N/A Fog Fog
5:53 AM 44.1 °F - 43.0 °F 96% 30.34 in 0.2 mi Calm Calm - N/A Fog Fog
6:53 AM 43.0 °F 40.3 °F 42.1 °F 97% 30.35 in 0.2 mi NNW 4.6 mph - N/A Fog Fog
7:53 AM 42.1 °F 40.2 °F 41.0 °F 96% 30.36 in 0.2 mi North 3.5 mph - N/A Fog Fog
8:53 AM 44.1 °F - 44.1 °F 100% 30.36 in 0.5 mi Calm Calm - N/A Fog Fog
9:26 AM 44.6 °F - 44.6 °F 100% 30.35 in 1.2 mi Calm Calm - N/A   Overcast
9:37 AM 46.4 °F - 44.6 °F 93% 30.35 in 2.5 mi Calm Calm - N/A   Overcast
9:44 AM 46.4 °F - 46.4 °F 100% 30.35 in 3.0 mi Calm Calm - N/A   Overcast
9:53 AM 48.0 °F - 46.0 °F 93% 30.35 in 7.0 mi Calm Calm - N/A   Mostly Cloudy
10:06 AM 48.2 °F - 46.4 °F 93% 30.34 in 10.0 mi Calm Calm - N/A   Scattered Clouds
10:53 AM 57.0 °F - 46.0 °F 67% 30.34 in 10.0 mi SSE 3.5 mph - N/A   Clear
11:53 AM 64.0 °F - 48.0 °F 56% 30.31 in 10.0 mi Variable 3.5 mph - N/A   Clear
12:53 PM 66.9 °F - 45.0 °F 45% 30.29 in 10.0 mi South 5.8 mph - N/A   Clear
1:53 PM 68.0 °F - 44.1 °F 42% 30.26 in 10.0 mi SE 8.1 mph - N/A   Clear
2:53 PM 69.1 °F - 45.0 °F 42% 30.23 in 10.0 mi Variable 6.9 mph - N/A   Clear
3:53 PM 70.0 °F - 44.1 °F 39% 30.21 in 10.0 mi South 8.1 mph - N/A   Clear
4:53 PM 70.0 °F - 44.1 °F 39% 30.19 in 10.0 mi South 5.8 mph - N/A   Clear
5:53 PM 68.0 °F - 44.1 °F 42% 30.19 in 10.0 mi South 5.8 mph - N/A   Clear
6:53 PM 57.9 °F - 48.9 °F 72% 30.18 in 10.0 mi Calm Calm - N/A   Clear
7:53 PM 51.1 °F - 48.9 °F 92% 30.19 in 10.0 mi Calm Calm - N/A   Clear
8:53 PM 48.9 °F - 46.9 °F 93% 30.21 in 10.0 mi Calm Calm - N/A   Clear
9:53 PM 46.9 °F - 45.0 °F 93% 30.21 in 10.0 mi Calm Calm - N/A   Clear
10:53 PM 46.0 °F - 44.1 °F 93% 30.21 in 10.0 mi Calm Calm - N/A   Clear
11:53 PM 44.1 °F - 42.1 °F 93% 30.21 in 10.0 mi Calm Calm - N/A   Clear